QPF
0.01 0.01 0.01 0.01 0.00 0.00 0.00 0.00 0.01 0.01 0.01 0.01 0.01 0.00 0.00 0.00 0.01 0.00 0.00 0.00 0.00 0.00 0.00 0.00 0.00 0.00 0.00 0.00 0.00 0.00 0.00 0.00 0.00 0.00 0.00 0.00 0.00 0.00 0.00 0.00 0.00 0.00 0.00 0.00
0.01 0.01 0.01 0.01 0.01 0.00 0.00 0.00 0.00 0.01 0.01 0.00 0.00 0.00 0.00 0.01 0.01 0.00 0.00 0.00 0.00 0.00 0.00 0.00 0.00 0.00 0.00 0.00 0.00 0.00 0.00 0.00 0.00 0.00 0.00 0.00 0.00 0.00 0.00 0.00 0.00 0.00 0.00 0.00
0.01 0.01 0.01 0.01 0.00 0.00 0.00 0.00 0.00 0.00 0.00 0.00 0.00 0.00 0.00 0.00 0.00 0.00 0.00 0.00 0.00 0.00 0.00 0.00 0.00 0.00 0.00 0.00 0.00 0.01 0.01 0.00 0.00 0.00 0.00 0.00 0.00 0.00 0.00 0.01 0.01 0.00 0.00 0.00
0.01 0.01 0.01 0.00 0.00 0.00 0.00 0.00 0.00 0.00 0.00 0.00 0.00 0.00 0.00 0.00 0.00 0.00 0.00 0.00 0.00 0.00 0.00 0.00 0.00 0.00 0.00 0.00 0.00 0.01 0.01 0.00 0.00 0.00 0.00 0.00 0.00 0.00 0.01 0.01 0.01 0.00 0.00 0.00
0.00 0.01 0.01 0.00 0.00 0.00 0.00 0.00 0.00 0.00 0.00 0.00 0.00 0.00 0.00 0.00 0.00 0.00 0.00 0.00 0.00 0.00 0.00 0.00 0.00 0.00 0.00 0.00 0.01 0.01 0.01 0.00 0.00 0.00 0.00 0.00 0.00 0.00 0.00 0.00 0.00 0.00 0.00 0.00
0.00 0.00 0.01 0.00 0.00 0.00 0.00 0.00 0.00 0.00 0.00 0.00 0.00 0.00 0.00 0.01 0.01 0.01 0.01 0.01 0.00 0.00 0.00 0.00 0.00 0.00 0.00 0.01 0.01 0.01 0.00 0.00 0.01 0.00 0.00 0.00 0.00 0.00 0.00 0.01 0.00 0.00 0.00 0.00
0.00 0.00 0.00 0.00 0.00 0.00 0.00 0.00 0.00 0.00 0.00 0.00 0.00 0.00 0.00 0.00 0.01 0.01 0.01 0.01 0.01 0.00 0.00 0.00 0.00 0.00 0.00 0.00 0.00 0.00 0.00 0.00 0.00 0.00 0.00 0.00 0.00 0.00 0.00 0.00 0.00 0.00 0.00 0.00
0.00 0.00 0.00 0.00 0.00 0.00 0.00 0.00 0.00 0.00 0.00 0.00 0.00 0.00 0.00 0.00 0.01 0.01 0.01 0.01 0.00 0.00 0.00 0.01 0.00 0.00 0.00 0.00 0.00 0.00 0.01 0.00 0.00 0.00 0.00 0.00 0.00 0.00 0.00 0.00 0.00 0.00 0.00 0.00
0.00 0.00 0.00 0.00 0.00 0.00 0.00 0.00 0.00 0.00 0.00 0.00 0.00 0.00 0.00 0.00 0.00 0.00 0.01 0.00 0.00 0.00 0.00 0.01 0.01 0.00 0.00 0.00 0.00 0.00 0.00 0.00 0.00 0.00 0.00 0.00 0.00 0.00 0.00 0.00 0.00 0.00 0.00 0.00
0.00 0.00 0.00 0.00 0.00 0.00 0.00 0.00 0.00 0.00 0.00 0.00 0.00 0.00 0.00 0.00 0.01 0.01 0.00 0.00 0.00 0.00 0.00 0.00 0.00 0.00 0.00 0.00 0.00 0.00 0.00 0.00 0.00 0.00 0.00 0.00 0.00 0.00 0.00 0.00 0.00 0.00 0.00 0.00
0.01 0.00 0.00 0.00 0.00 0.00 0.00 0.00 0.00 0.00 0.00 0.00 0.00 0.00 0.00 0.00 0.01 0.01 0.01 0.01 0.01 0.01 0.00 0.00 0.00 0.00 0.00 0.00 0.00 0.00 0.00 0.00 0.00 0.00 0.00 0.00 0.00 0.00 0.00 0.00 0.00 0.00 0.00 0.00
0.00 0.00 0.00 0.00 0.00 0.00 0.00 0.00 0.00 0.00 0.00 0.00 0.00 0.00 0.00 0.00 0.01 0.02 0.02 0.01 0.01 0.01 0.01 0.00 0.00 0.00 0.00 0.00 0.00 0.00 0.00 0.00 0.00 0.00 0.00 0.00 0.00 0.00 0.00 0.00 0.00 0.00 0.00 0.00
0.00 0.00 0.00 0.00 0.00 0.00 0.00 0.00 0.00 0.00 0.00 0.00 0.00 0.00 0.00 0.00 0.00 0.02 0.03 0.01 0.01 0.01 0.01 0.01 0.01 0.00 0.00 0.00 0.00 0.00 0.00 0.00 0.00 0.00 0.00 0.00 0.00 0.00 0.00 0.00 0.00 0.00 0.00 0.00
0.00 0.00 0.00 0.00 0.00 0.00 0.00 0.00 0.00 0.00 0.00 0.00 0.00 0.00 0.00 0.00 0.00 0.01 0.01 0.01 0.01 0.01 0.01 0.00 0.00 0.00 0.00 0.00 0.00 0.00 0.00 0.00 0.00 0.00 0.00 0.00 0.00 0.00 0.00 0.00 0.00 0.00 0.00 0.00
0.00 0.00 0.00 0.00 0.00 0.00 0.00 0.00 0.00 0.00 0.00 0.00 0.00 0.00 0.00 0.00 0.00 0.00 0.01 0.00 0.01 0.01 0.01 0.00 0.00 0.00 0.00 0.00 0.00 0.00 0.00 0.00 0.00 0.00 0.00 0.00 0.00 0.00 0.00 0.00 0.00 0.00 0.00 0.00
0.00 0.00 0.00 0.00 0.00 0.00 0.00 0.00 0.00 0.00 0.00 0.00 0.00 0.00 0.00 0.00 0.00 0.00 0.00 0.00 0.00 0.00 0.00 0.00 0.00 0.00 0.00 0.00 0.00 0.00 0.00 0.00 0.00 0.00 0.00 0.00 0.00 0.00 0.00 0.00 0.00 0.00 0.00 0.00
0.00 0.00 0.00 0.00 0.00 0.00 0.00 0.00 0.00 0.00 0.00 0.00 0.00 0.00 0.00 0.01 0.01 0.00 0.00 0.00 0.00 0.00 0.00 0.00 0.00 0.00 0.00 0.00 0.00 0.00 0.00 0.00 0.00 0.00 0.00 0.00 0.00 0.00 0.00 0.00 0.00 0.00 0.00 0.00
0.00 0.00 0.00 0.00 0.00 0.00 0.00 0.00 0.00 0.00 0.00 0.00 0.00 0.00 0.01 0.01 0.01 0.00 0.00 0.00 0.00 0.00 0.00 0.00 0.00 0.00 0.00 0.00 0.00 0.00 0.00 0.00 0.00 0.00 0.00 0.00 0.00 0.00 0.00 0.00 0.00 0.00 0.00 0.00
0.00 0.00 0.00 0.00 0.00 0.00 0.00 0.00 0.00 0.00 0.00 0.00 0.00 0.00 0.01 0.01 0.00 0.00 0.00 0.00 0.00 0.00 0.00 0.00 0.00 0.00 0.00 0.00 0.00 0.00 0.00 0.00 0.00 0.00 0.00 0.00 0.00 0.00 0.00 0.00 0.00 0.00 0.00 0.00
0.00 0.00 0.00 0.00 0.00 0.00 0.00 0.00 0.00 0.00 0.00 0.00 0.00 0.00 0.01 0.01 0.00 0.00 0.00 0.00 0.00 0.00 0.00 0.00 0.00 0.00 0.00 0.00 0.00 0.00 0.00 0.00 0.00 0.00 0.00 0.00 0.00 0.00 0.00 0.00 0.00 0.00 0.00 0.00
0.00 0.00 0.00 0.00 0.00 0.00 0.00 0.00 0.00 0.00 0.00 0.00 0.00 0.00 0.00 0.00 0.00 0.00 0.00 0.00 0.00 0.00 0.00 0.00 0.00 0.00 0.00 0.00 0.00 0.00 0.00 0.00 0.00 0.00 0.00 0.00 0.00 0.00 0.00 0.00 0.00 0.00 0.00 0.00
0.00 0.00 0.00 0.00 0.00 0.00 0.00 0.00 0.00 0.00 0.00 0.00 0.00 0.00 0.00 0.00 0.00 0.00 0.00 0.00 0.00 0.00 0.00 0.00 0.00 0.00 0.00 0.00 0.00 0.00 0.00 0.00 0.00 0.00 0.00 0.00 0.00 0.00 0.00 0.00 0.00 0.00 0.00 0.00
0.00 0.00 0.00 0.00 0.00 0.00 0.00 0.00 0.00 0.00 0.00 0.00 0.00 0.00 0.00 0.00 0.00 0.00 0.00 0.00 0.00 0.00 0.00 0.00 0.00 0.00 0.00 0.00 0.00 0.00 0.00 0.00 0.00 0.00 0.00 0.00 0.00 0.00 0.00 0.00 0.01 0.01 0.01 0.02
0.00 0.00 0.00 0.00 0.00 0.00 0.00 0.00 0.00 0.00 0.00 0.00 0.00 0.00 0.00 0.00 0.00 0.00 0.00 0.00 0.00 0.00 0.00 0.00 0.00 0.00 0.00 0.00 0.00 0.00 0.00 0.00 0.00 0.00 0.00 0.00 0.00 0.00 0.00 0.00 0.01 0.01 0.01 0.01
0.00 0.00 0.00 0.00 0.00 0.00 0.00 0.00 0.00 0.00 0.00 0.00 0.00 0.00 0.00 0.00 0.00 0.00 0.00 0.00 0.00 0.00 0.00 0.00 0.00 0.00 0.00 0.00 0.00 0.00 0.00 0.00 0.00 0.00 0.00 0.00 0.00 0.00 0.00 0.00 0.01 0.01 0.01 0.01
0.00 0.00 0.00 0.00 0.00 0.00 0.00 0.00 0.00 0.00 0.00 0.00 0.00 0.00 0.00 0.00 0.00 0.00 0.00 0.00 0.00 0.00 0.00 0.00 0.00 0.00 0.00 0.00 0.00 0.00 0.00 0.00 0.00 0.00 0.00 0.00 0.00 0.00 0.00 0.00 0.00 0.01 0.01 0.01
0.00 0.00 0.00 0.00 0.00 0.00 0.00 0.00 0.00 0.00 0.00 0.00 0.00 0.00 0.00 0.00 0.00 0.00 0.00 0.00 0.00 0.00 0.00 0.00 0.00 0.00 0.01 0.01 0.01 0.00 0.00 0.00 0.00 0.00 0.00 0.00 0.00 0.00 0.00 0.00 0.00 0.00 0.00 0.00
MSLP
1017.03 1017.27 1017.50 1017.71 1017.87 1017.94 1017.89 1017.68 1017.28 1016.72 1016.00 1015.18 1014.32 1013.52 1012.84 1012.33 1012.05 1011.98 1012.11 1012.41 1012.82 1013.29 1013.78 1014.24 1014.67 1015.06 1015.44 1015.82 1016.22 1016.65 1017.11 1017.59 1018.08 1018.55 1018.99 1019.37 1019.70 1019.96 1020.18 1020.37 1020.53 1020.70 1020.88 1021.08
1017.01 1017.23 1017.40 1017.51 1017.55 1017.49 1017.32 1017.02 1016.59 1016.03 1015.38 1014.67 1013.95 1013.29 1012.74 1012.32 1012.07 1011.99 1012.06 1012.26 1012.55 1012.91 1013.29 1013.69 1014.09 1014.50 1014.91 1015.35 1015.82 1016.31 1016.83 1017.36 1017.88 1018.38 1018.83 1019.23 1019.56 1019.84 1020.06 1020.25 1020.42 1020.57 1020.73 1020.91
1017.18 1017.36 1017.47 1017.50 1017.43 1017.26 1016.99 1016.62 1016.15 1015.61 1015.01 1014.39 1013.80 1013.25 1012.79 1012.44 1012.21 1012.10 1012.09 1012.19 1012.36 1012.58 1012.86 1013.17 1013.52 1013.91 1014.34 1014.81 1015.32 1015.86 1016.41 1016.97 1017.52 1018.03 1018.50 1018.91 1019.26 1019.55 1019.80 1020.00 1020.18 1020.33 1020.49 1020.64
1017.48 1017.62 1017.68 1017.64 1017.49 1017.24 1016.90 1016.48 1016.00 1015.47 1014.93 1014.39 1013.88 1013.42 1013.03 1012.71 1012.48 1012.31 1012.23 1012.20 1012.24 1012.34 1012.50 1012.71 1012.99 1013.33 1013.73 1014.20 1014.71 1015.26 1015.82 1016.39 1016.93 1017.45 1017.92 1018.35 1018.72 1019.04 1019.32 1019.56 1019.76 1019.93 1020.09 1020.23
1017.82 1017.94 1017.96 1017.87 1017.69 1017.40 1017.03 1016.60 1016.12 1015.61 1015.11 1014.63 1014.19 1013.78 1013.43 1013.12 1012.86 1012.64 1012.45 1012.32 1012.22 1012.19 1012.22 1012.32 1012.50 1012.77 1013.12 1013.54 1014.02 1014.53 1015.07 1015.61 1016.14 1016.64 1017.11 1017.55 1017.94 1018.30 1018.61 1018.90 1019.14 1019.35 1019.52 1019.67
1018.15 1018.24 1018.25 1018.16 1017.97 1017.68 1017.32 1016.90 1016.44 1015.97 1015.52 1015.08 1014.67 1014.30 1013.95 1013.63 1013.33 1013.04 1012.76 1012.51 1012.30 1012.13 1012.04 1012.02 1012.10 1012.27 1012.53 1012.88 1013.28 1013.73 1014.21 1014.70 1015.18 1015.65 1016.11 1016.54 1016.95 1017.34 1017.70 1018.03 1018.33 1018.58 1018.79 1018.96
1018.41 1018.51 1018.52 1018.45 1018.28 1018.03 1017.70 1017.32 1016.90 1016.47 1016.05 1015.65 1015.27 1014.90 1014.55 1014.20 1013.85 1013.50 1013.14 1012.79 1012.46 1012.18 1011.97 1011.84 1011.80 1011.87 1012.02 1012.27 1012.58 1012.94 1013.33 1013.74 1014.15 1014.57 1014.99 1015.41 1015.83 1016.23 1016.63 1017.00 1017.35 1017.65 1017.90 1018.10
1018.62 1018.72 1018.76 1018.73 1018.61 1018.40 1018.13 1017.79 1017.42 1017.04 1016.65 1016.27 1015.90 1015.54 1015.18 1014.80 1014.41 1013.99 1013.57 1013.14 1012.72 1012.35 1012.03 1011.80 1011.65 1011.60 1011.65 1011.78 1011.98 1012.23 1012.51 1012.82 1013.16 1013.50 1013.87 1014.25 1014.64 1015.05 1015.46 1015.86 1016.24 1016.58 1016.87 1017.11
1018.78 1018.91 1018.98 1018.99 1018.92 1018.76 1018.54 1018.26 1017.94 1017.59 1017.23 1016.87 1016.52 1016.15 1015.78 1015.39 1014.97 1014.52 1014.05 1013.56 1013.09 1012.64 1012.25 1011.92 1011.68 1011.53 1011.46 1011.47 1011.55 1011.68 1011.85 1012.05 1012.28 1012.54 1012.82 1013.13 1013.48 1013.85 1014.24 1014.63 1015.02 1015.38 1015.70 1015.97
1018.95 1019.09 1019.20 1019.24 1019.20 1019.09 1018.92 1018.68 1018.39 1018.08 1017.75 1017.41 1017.07 1016.71 1016.34 1015.95 1015.52 1015.06 1014.57 1014.06 1013.55 1013.06 1012.61 1012.22 1011.89 1011.64 1011.47 1011.37 1011.33 1011.34 1011.39 1011.48 1011.59 1011.73 1011.91 1012.13 1012.39 1012.68 1013.01 1013.36 1013.71 1014.05 1014.37 1014.66
1019.15 1019.31 1019.42 1019.48 1019.47 1019.38 1019.23 1019.03 1018.77 1018.48 1018.18 1017.86 1017.54 1017.21 1016.85 1016.48 1016.07 1015.62 1015.14 1014.63 1014.12 1013.60 1013.12 1012.67 1012.28 1011.95 1011.69 1011.48 1011.33 1011.23 1011.16 1011.12 1011.11 1011.12 1011.17 1011.26 1011.40 1011.58 1011.79 1012.04 1012.32 1012.61 1012.89 1013.17
1019.41 1019.55 1019.66 1019.71 1019.70 1019.63 1019.49 1019.30 1019.06 1018.80 1018.53 1018.24 1017.94 1017.64 1017.32 1016.98 1016.61 1016.20 1015.74 1015.26 1014.75 1014.24 1013.73 1013.25 1012.80 1012.41 1012.06 1011.77 1011.52 1011.30 1011.12 1010.96 1010.82 1010.70 1010.60 1010.54 1010.52 1010.54 1010.61 1010.72 1010.87 1011.06 1011.28 1011.51
1019.70 1019.82 1019.90 1019.93 1019.91 1019.83 1019.69 1019.51 1019.30 1019.06 1018.81 1018.56 1018.30 1018.04 1017.77 1017.48 1017.15 1016.78 1016.37 1015.91 1015.43 1014.92 1014.40 1013.89 1013.41 1012.95 1012.54 1012.17 1011.83 1011.51 1011.22 1010.95 1010.68 1010.42 1010.18 1009.96 1009.76 1009.61 1009.50 1009.44 1009.43 1009.48 1009.59 1009.75
1020.00 1020.08 1020.13 1020.13 1020.09 1020.00 1019.86 1019.69 1019.50 1019.29 1019.07 1018.86 1018.65 1018.44 1018.22 1017.97 1017.69 1017.37 1017.00 1016.58 1016.11 1015.61 1015.08 1014.55 1014.03 1013.53 1013.06 1012.62 1012.20 1011.80 1011.42 1011.04 1010.66 1010.28 1009.89 1009.51 1009.15 1008.81 1008.51 1008.27 1008.09 1007.98 1007.95 1008.00
1020.26 1020.31 1020.32 1020.29 1020.23 1020.14 1020.01 1019.86 1019.70 1019.52 1019.35 1019.18 1019.01 1018.85 1018.67 1018.48 1018.24 1017.96 1017.62 1017.22 1016.77 1016.27 1015.74 1015.19 1014.64 1014.10 1013.58 1013.08 1012.60 1012.14 1011.68 1011.22 1010.74 1010.25 1009.74 1009.23 1008.71 1008.20 1007.73 1007.30 1006.95 1006.67 1006.49 1006.41
1020.46 1020.47 1020.46 1020.42 1020.36 1020.27 1020.17 1020.05 1019.92 1019.79 1019.66 1019.54 1019.42 1019.29 1019.16 1019.00 1018.79 1018.54 1018.22 1017.84 1017.39 1016.89 1016.35 1015.79 1015.21 1014.63 1014.07 1013.53 1013.01 1012.49 1011.98 1011.46 1010.91 1010.34 1009.74 1009.12 1008.48 1007.84 1007.22 1006.63 1006.12 1005.68 1005.35 1005.13
1020.58 1020.57 1020.55 1020.52 1020.47 1020.42 1020.35 1020.27 1020.19 1020.11 1020.02 1019.94 1019.86 1019.77 1019.66 1019.52 1019.34 1019.10 1018.79 1018.41 1017.97 1017.47 1016.92 1016.34 1015.74 1015.14 1014.55 1013.98 1013.42 1012.87 1012.32 1011.76 1011.17 1010.56 1009.90 1009.21 1008.48 1007.75 1007.02 1006.32 1005.68 1005.11 1004.64 1004.28
1020.65 1020.64 1020.62 1020.62 1020.60 1020.59 1020.57 1020.54 1020.51 1020.47 1020.44 1020.39 1020.34 1020.27 1020.17 1020.04 1019.86 1019.62 1019.32 1018.94 1018.49 1017.99 1017.43 1016.84 1016.24 1015.62 1015.02 1014.43 1013.85 1013.28 1012.71 1012.12 1011.52 1010.88 1010.19 1009.47 1008.71 1007.93 1007.14 1006.37 1005.64 1004.97 1004.38 1003.90
1020.70 1020.71 1020.72 1020.74 1020.77 1020.81 1020.83 1020.86 1020.88 1020.88 1020.88 1020.86 1020.82 1020.76 1020.67 1020.53 1020.34 1020.10 1019.79 1019.40 1018.96 1018.45 1017.90 1017.31 1016.70 1016.09 1015.47 1014.87 1014.28 1013.70 1013.12 1012.52 1011.91 1011.27 1010.58 1009.86 1009.10 1008.31 1007.50 1006.70 1005.93 1005.20 1004.54 1003.96
1020.80 1020.83 1020.88 1020.94 1021.00 1021.08 1021.15 1021.21 1021.27 1021.30 1021.32 1021.31 1021.28 1021.21 1021.11 1020.96 1020.76 1020.50 1020.18 1019.79 1019.35 1018.85 1018.30 1017.72 1017.12 1016.50 1015.89 1015.28 1014.68 1014.09 1013.50 1012.90 1012.29 1011.65 1010.98 1010.27 1009.53 1008.77 1007.98 1007.20 1006.42 1005.68 1004.98 1004.34
1021.00 1021.06 1021.12 1021.21 1021.30 1021.40 1021.50 1021.59 1021.66 1021.71 1021.73 1021.72 1021.68 1021.60 1021.47 1021.30 1021.08 1020.80 1020.47 1020.08 1019.63 1019.14 1018.60 1018.03 1017.44 1016.83 1016.22 1015.61 1015.01 1014.40 1013.80 1013.20 1012.58 1011.94 1011.29 1010.61 1009.90 1009.17 1008.43 1007.68 1006.94 1006.21 1005.52 1004.86
1021.31 1021.38 1021.46 1021.56 1021.66 1021.76 1021.87 1021.96 1022.03 1022.07 1022.08 1022.06 1022.00 1021.89 1021.74 1021.53 1021.29 1020.99 1020.64 1020.24 1019.79 1019.30 1018.77 1018.21 1017.62 1017.02 1016.41 1015.80 1015.18 1014.56 1013.94 1013.32 1012.70 1012.06 1011.42 1010.76 1010.08 1009.40 1008.71 1008.02 1007.33 1006.65 1005.99 1005.36
1021.73 1021.80 1021.87 1021.95 1022.04 1022.13 1022.21 1022.29 1022.34 1022.37 1022.36 1022.31 1022.21 1022.07 1021.88 1021.65 1021.36 1021.03 1020.66 1020.24 1019.78 1019.28 1018.75 1018.20 1017.62 1017.02 1016.41 1015.78 1015.15 1014.52 1013.88 1013.24 1012.60 1011.96 1011.32 1010.67 1010.03 1009.39 1008.75 1008.12 1007.49 1006.88 1006.27 1005.68
1022.19 1022.24 1022.29 1022.34 1022.40 1022.46 1022.52 1022.56 1022.59 1022.59 1022.55 1022.46 1022.33 1022.15 1021.92 1021.64 1021.31 1020.94 1020.53 1020.08 1019.59 1019.08 1018.54 1017.98 1017.40 1016.80 1016.18 1015.55 1014.91 1014.26 1013.61 1012.95 1012.29 1011.64 1011.00 1010.36 1009.74 1009.13 1008.53 1007.96 1007.39 1006.84 1006.30 1005.77
1022.63 1022.65 1022.66 1022.68 1022.70 1022.72 1022.74 1022.75 1022.75 1022.72 1022.65 1022.53 1022.36 1022.14 1021.86 1021.53 1021.15 1020.72 1020.26 1019.77 1019.25 1018.71 1018.15 1017.57 1016.98 1016.38 1015.76 1015.13 1014.48 1013.83 1013.16 1012.49 1011.83 1011.17 1010.52 1009.88 1009.27 1008.68 1008.12 1007.58 1007.07 1006.57 1006.09 1005.62
1022.96 1022.95 1022.93 1022.90 1022.89 1022.88 1022.87 1022.85 1022.82 1022.77 1022.67 1022.52 1022.32 1022.05 1021.72 1021.34 1020.90 1020.42 1019.90 1019.35 1018.78 1018.20 1017.61 1017.02 1016.42 1015.81 1015.19 1014.57 1013.93 1013.28 1012.63 1011.96 1011.30 1010.64 1009.98 1009.35 1008.75 1008.17 1007.62 1007.10 1006.61 1006.15 1005.70 1005.27
1023.12 1023.08 1023.03 1022.98 1022.94 1022.91 1022.89 1022.86 1022.81 1022.74 1022.62 1022.45 1022.22 1021.91 1021.54 1021.10 1020.60 1020.06 1019.48 1018.87 1018.26 1017.63 1017.01 1016.40 1015.79 1015.19 1014.59 1013.98 1013.36 1012.74 1012.11 1011.46 1010.81 1010.16 1009.52 1008.89 1008.28 1007.69 1007.14 1006.62 1006.13 1005.67 1005.22 1004.79
Thickness
5705 5711 5713 5714 5716 5717 5711 5705 5697 5707 5713 5725 5734 5738 5742 5744 5743 5741 5738 5737 5736 5734 5732 5730 5728 5726 5724 5722 5719 5717 5712 5708 5706 5703 5701 5698 5695 5692 5690 5687 5684 5681 5678 5675
5704 5713 5712 5711 5717 5718 5717 5717 5713 5715 5719 5736 5741 5741 5740 5740 5739 5737 5736 5736 5736 5734 5731 5729 5727 5725 5722 5720 5717 5714 5710 5706 5703 5700 5696 5693 5691 5688 5684 5681 5678 5675 5673 5670
5688 5701 5705 5697 5714 5717 5717 5721 5719 5712 5723 5735 5735 5736 5737 5738 5738 5737 5737 5736 5735 5733 5732 5730 5728 5726 5722 5719 5715 5711 5707 5704 5700 5696 5692 5689 5687 5682 5679 5676 5673 5670 5667 5664
5683 5690 5681 5703 5727 5727 5721 5722 5726 5727 5730 5734 5734 5737 5739 5740 5739 5737 5737 5736 5735 5734 5732 5730 5728 5725 5722 5717 5712 5708 5704 5700 5697 5693 5689 5685 5681 5677 5674 5671 5668 5664 5661 5659
5675 5676 5684 5708 5724 5726 5718 5714 5726 5725 5728 5730 5733 5731 5729 5737 5739 5739 5739 5737 5736 5735 5732 5728 5725 5722 5717 5712 5708 5704 5701 5698 5695 5691 5686 5681 5677 5673 5670 5666 5663 5659 5657 5653
5673 5673 5673 5699 5725 5733 5722 5704 5724 5725 5724 5724 5723 5708 5714 5731 5734 5734 5735 5735 5733 5731 5727 5724 5721 5718 5713 5708 5703 5701 5699 5697 5693 5688 5684 5679 5675 5670 5666 5662 5658 5655 5651 5648
5670 5668 5680 5709 5723 5725 5696 5699 5721 5724 5723 5721 5716 5715 5722 5727 5728 5728 5729 5729 5728 5725 5721 5719 5717 5713 5708 5705 5702 5701 5698 5693 5688 5684 5680 5676 5671 5666 5662 5657 5653 5649 5645 5642
5666 5664 5676 5714 5716 5707 5707 5717 5720 5720 5721 5719 5717 5718 5719 5720 5720 5720 5720 5720 5720 5717 5714 5713 5711 5708 5703 5700 5700 5697 5693 5688 5684 5680 5676 5672 5666 5661 5656 5651 5646 5642 5638 5635
5679 5683 5702 5711 5713 5718 5717 5714 5716 5715 5716 5715 5712 5711 5712 5711 5711 5712 5712 5711 5711 5709 5706 5704 5703 5702 5697 5696 5694 5690 5686 5681 5678 5674 5670 5666 5661 5655 5650 5645 5640 5636 5632 5628
5681 5689 5699 5706 5710 5713 5714 5713 5713 5713 5711 5710 5706 5704 5703 5702 5701 5702 5702 5702 5701 5699 5696 5694 5694 5693 5692 5690 5687 5683 5678 5674 5671 5666 5662 5659 5655 5650 5645 5640 5635 5631 5626 5623
5676 5685 5692 5698 5701 5704 5706 5707 5706 5706 5705 5703 5700 5697 5695 5693 5692 5692 5692 5692 5691 5690 5687 5685 5685 5684 5683 5681 5679 5674 5670 5667 5663 5659 5655 5651 5647 5644 5640 5637 5633 5628 5623 5619
5674 5684 5682 5686 5695 5699 5698 5697 5697 5696 5694 5694 5692 5689 5687 5684 5684 5683 5682 5682 5680 5679 5677 5676 5675 5674 5673 5672 5670 5666 5661 5657 5653 5649 5646 5642 5638 5635 5633 5630 5628 5624 5620 5614
5686 5689 5686 5689 5691 5693 5691 5691 5691 5690 5687 5684 5683 5682 5679 5675 5674 5674 5673 5671 5670 5668 5668 5666 5665 5663 5663 5662 5660 5656 5652 5648 5644 5641 5637 5633 5629 5625 5622 5620 5618 5615 5611 5607
5685 5683 5679 5681 5681 5685 5685 5685 5683 5681 5679 5677 5674 5672 5670 5667 5664 5663 5661 5661 5660 5658 5657 5655 5654 5653 5653 5652 5649 5646 5643 5640 5636 5632 5628 5624 5620 5617 5613 5609 5605 5603 5601 5597
5677 5676 5674 5675 5675 5675 5675 5673 5670 5667 5666 5665 5664 5662 5660 5657 5654 5653 5652 5651 5649 5646 5645 5644 5643 5641 5641 5640 5638 5635 5631 5627 5624 5621 5617 5613 5610 5606 5602 5599 5595 5592 5589 5586
5667 5667 5666 5664 5663 5663 5662 5661 5658 5656 5655 5654 5652 5651 5650 5648 5645 5643 5641 5639 5636 5633 5633 5632 5631 5630 5629 5628 5625 5622 5619 5617 5613 5609 5605 5601 5598 5594 5590 5586 5583 5579 5576 5573
5655 5653 5653 5652 5652 5652 5652 5651 5649 5647 5645 5644 5642 5641 5639 5636 5633 5630 5628 5627 5625 5623 5622 5620 5619 5618 5617 5614 5611 5608 5605 5602 5601 5596 5592 5589 5585 5581 5578 5574 5570 5567 5564 5562
5654 5653 5651 5649 5646 5644 5642 5641 5640 5638 5636 5634 5633 5630 5627 5623 5620 5618 5616 5614 5612 5610 5608 5607 5606 5605 5603 5601 5598 5595 5592 5589 5586 5582 5579 5576 5572 5568 5564 5560 5557 5553 5550 5547
5644 5643 5642 5641 5639 5636 5633 5631 5629 5628 5626 5624 5621 5617 5614 5612 5609 5606 5604 5601 5598 5595 5594 5594 5594 5591 5589 5587 5585 5582 5578 5575 5572 5568 5565 5562 5558 5554 5550 5546 5543 5540 5536 5533
5633 5632 5631 5629 5628 5625 5622 5620 5619 5617 5615 5612 5608 5605 5601 5598 5596 5593 5590 5587 5585 5583 5583 5581 5579 5577 5575 5573 5571 5567 5564 5560 5557 5553 5550 5546 5542 5539 5535 5532 5528 5525 5521 5517
5619 5619 5618 5616 5614 5613 5611 5609 5607 5604 5602 5600 5596 5592 5589 5586 5584 5581 5577 5573 5572 5571 5570 5569 5566 5563 5561 5559 5556 5552 5549 5545 5542 5538 5534 5530 5527 5523 5520 5516 5513 5509 5506 5502
5605 5604 5603 5602 5600 5598 5597 5596 5594 5592 5589 5587 5584 5581 5577 5573 5571 5568 5565 5562 5561 5560 5557 5555 5552 5551 5548 5545 5541 5537 5534 5530 5526 5522 5518 5515 5511 5508 5504 5501 5497 5494 5490 5486
5591 5590 5590 5589 5587 5585 5583 5582 5581 5579 5577 5574 5571 5568 5564 5561 5558 5555 5551 5550 5549 5548 5544 5541 5540 5538 5536 5531 5526 5523 5519 5515 5511 5508 5504 5501 5497 5493 5489 5486 5482 5478 5474 5471
5578 5578 5577 5575 5574 5572 5569 5567 5566 5565 5563 5561 5558 5555 5552 5548 5544 5542 5540 5539 5537 5535 5531 5528 5527 5525 5521 5516 5512 5508 5504 5500 5497 5493 5490 5486 5482 5478 5475 5471 5468 5464 5460 5457
5565 5564 5563 5562 5560 5557 5555 5554 5552 5550 5548 5545 5543 5541 5539 5536 5532 5529 5527 5525 5524 5521 5517 5514 5513 5510 5505 5501 5497 5493 5489 5486 5483 5479 5476 5472 5468 5464 5461 5457 5454 5451 5447 5444
5550 5549 5548 5548 5546 5544 5542 5541 5538 5535 5533 5530 5528 5526 5524 5522 5520 5517 5514 5512 5510 5507 5503 5499 5497 5494 5490 5486 5483 5480 5476 5472 5469 5465 5462 5459 5455 5451 5447 5444 5441 5438 5435 5432
5535 5535 5533 5532 5531 5531 5529 5527 5525 5522 5520 5519 5515 5513 5511 5509 5506 5503 5501 5497 5494 5491 5488 5485 5482 5479 5476 5473 5470 5467 5463 5459 5456 5453 5449 5446 5442 5439 5435 5433 5429 5426 5423 5420